Regional Weather Roundup
Issued by NWS

Home | Current Version | Previous Version | Graphics & Text | Print | Product List | Glossary On
Versions: 1 2 3 4 5 6 7 8 9 10 11 12 13 14 15 16 17 18 19 20 21 22 23 24 25 26 27 28 29 30 31 32 33 34 35 36 37 38 39 40 41 42 43 44 45 46 47 48 49 50
000
ASUS43 KMKX 260000
RWRWI

WISCONSIN REGIONAL WEATHER ROUNDUP
NATIONAL WEATHER SERVICE MILWAUKEE/SULLIVAN WI
700 PM CDT FRI JUL 25 2014

NOTE: "FAIR" INDICATES FEW OR NO CLOUDS BELOW 12,000 FEET WITH NO
SIGNIFICANT WEATHER AND/OR OBSTRUCTIONS TO VISIBILITY.

WIZ001-002-006>008-014>016-023>028-260100-
NORTHWEST WISCONSIN

CITY           SKY/WX    TMP DP  RH WIND       PRES   REMARKS
SUPERIOR ARPT  CLOUDY    64  60  87 NE3       29.78S
ASHLAND        CLOUDY    70  64  81 S9        29.81F
6HR MIN TEMP:  70; 6HR MAX TEMP:  75;

HAYWARD        CLOUDY    67  66  97 S7        29.83S FOG
6HR MIN TEMP:  67; 6HR MAX TEMP:  70; 6HR PCP: TRACE;

SIREN          CLOUDY    71  68  90 SE6       29.80S
RICE LAKE      CLOUDY    71  65  79 SE5       29.84S
LADYSMITH      CLOUDY    69  65  86 SE3       29.86F
EAU CLAIRE     NOT AVBL
MENOMONIE      CLOUDY    76  67  74 SE10      29.81F
NEW RICHMOND   CLOUDY    75  67  77 CALM      29.79F
OSCEOLA        CLOUDY    75  71  87 CALM      29.81S
$$

WIZ003>005-009-010-017-018-260100-
NORTH CENTRAL WISCONSIN

CITY           SKY/WX    TMP DP  RH WIND       PRES   REMARKS
WOODRUFF       CLOUDY    67  63  85 SW8       29.87S
RHINELANDER    CLOUDY    64  62  93 S6        29.89S FOG
6HR MIN TEMP:  64; 6HR MAX TEMP:  68; 6HR PCP: TRACE;

EAGLE RIVER    CLOUDY    66  60  81 SW5       29.86F
LAND O LAKES   CLOUDY    67  62  83 SW8       29.86F
PHILLIPS       CLOUDY    65  64  94 S5        29.86F FOG
TOMAHAWK       CLOUDY    65  61  87 CALM      29.89S FOG
MEDFORD        CLOUDY    67  63  86 S9        29.88S
MERRILL        CLOUDY    66  63  88 S6        29.87F
$$

WIZ029-030-035-036-043>047-260100-
CENTRAL WISCONSIN

CITY           SKY/WX    TMP DP  RH WIND       PRES   REMARKS
WAUSAU         CLOUDY    67  62  84 SW7       29.87S
6HR MIN TEMP:  67; 6HR MAX TEMP:  70;

MOSINEE        NOT AVBL
MARSHFIELD     CLOUDY    70  63  78 S8        29.87F
6HR MIN TEMP:  65; 6HR MAX TEMP:  70;

STEVENS POINT  CLOUDY    67  60  78 SW7       29.88F
WAUPACA        CLOUDY    73  61  66 SW7       29.88F
WAUTOMA        NOT AVBL
WISC RAPIDS    CLOUDY    70  62  76 S5        29.89S
6HR MIN TEMP:  65; 6HR MAX TEMP:  72;

CAMP DOUGLAS   NOT AVBL
$$

WIZ011>013-019>022-031-037>040-048>050-260100-
NORTHEAST WISCONSIN

CITY           SKY/WX    TMP DP  RH WIND       PRES   REMARKS
ANTIGO         CLOUDY    64  61  88 SW6       29.89F
STURGEON BAY   CLOUDY    66  55  68 S8        29.88S
6HR MIN TEMP:  66; 6HR MAX TEMP:  75;

GREEN BAY      CLOUDY    72  61  68 SW10      29.88S
6HR MIN TEMP:  69; 6HR MAX TEMP:  73;

MANITOWOC      NOT AVBL
APPLETON       PTSUNNY   70  57  64 SW9       29.89S
CLINTONVILLE   CLOUDY    70  59  68 SW8       29.88R
OSHKOSH        CLOUDY    71  61  70 SW7       29.88F
6HR MIN TEMP:  68; 6HR MAX TEMP:  74;

$$

WIZ032>034-041-042-053>061-260100-
SOUTHWEST WISCONSIN

CITY           SKY/WX    TMP DP  RH WIND       PRES   REMARKS
LA CROSSE      CLOUDY    76  64  66 S7        29.83S
6HR MIN TEMP:  70; 6HR MAX TEMP:  79;

SPARTA         CLOUDY    73  62  69 S7        29.87R
VIROQUA        CLOUDY    70  64  80 SE7       29.88S
BOSCOBEL       CLOUDY    72  62  71 VRB5      29.87S
6HR MIN TEMP:  69; 6HR MAX TEMP:  75;

PRAIRIE DU CHI NOT AVBL
PLATTEVILLE    CLOUDY    70  64  82 SE10      29.90S
$$

WIZ056-057-062-063-064-067-068-260100-
SOUTH CENTRAL WISCONSIN

CITY           SKY/WX    TMP DP  RH WIND       PRES   REMARKS
BARABOO/DELLS  CLOUDY    70  60  70 S8        29.89S
LONE ROCK      NOT AVBL
WATERTOWN      CLOUDY    70  62  75 SW8       29.89F
MADISON        CLOUDY    71  61  70 SW7       29.90S
6HR MIN TEMP:  68; 6HR MAX TEMP:  73;

MIDDLETON      CLOUDY    71  60  69 S9        29.91S
MONROE         CLOUDY    68  61  77 SE10      29.91F
JANESVILLE     CLOUDY    72  59  64 S9        29.91S
$$

WIZ051-052-058>065-066-070>072-260100-
SOUTHEAST WISCONSIN

CITY           SKY/WX    TMP DP  RH WIND       PRES   REMARKS
MILWAUKEE      PTSUNNY   73  58  59 SW10      29.90F
6HR MIN TEMP:  70; 6HR MAX TEMP:  75; 6HR PCP: TRACE;

WAUKESHA       CLOUDY    70  59  68 SW8       29.92F
MILWAUKEE/TIMM CLOUDY    72  57  60 SW9       29.91S
RACINE         SUNNY     72  59  63 SW8       29.92F
6HR MIN TEMP:  70; 6HR MAX TEMP:  74;

BURLINGTON     PTSUNNY   69  60  73 S8        29.92S
KENOSHA        MOSUNNY   72  60  66 SW8       29.91F
6HR MIN TEMP:  70; 6HR MAX TEMP:  75;

FOND DU LAC    CLOUDY    71  60  68 SW10      29.89S
6HR MIN TEMP:  67; 6HR MAX TEMP:  74;

SHEBOYGAN      CLOUDY    72  60  66 SW7       29.89F
6HR MIN TEMP:  67; 6HR MAX TEMP:  74;

WEST BEND      MOSUNNY   72  57  60 S8        29.89F
JUNEAU         CLOUDY    70  59  69 S9        29.91F
$$

LSZ147-162-260100-
LAKE SUPERIOR

STATION/POSITION TIME  TEMP    WIND        PRES    WAVE
                       AIR SEA DIR/SP/G            HT/PER
                 (UTC) (F)     (DEG/KT/KT) (MB)    (FT/S)
W MID LAKE BUOY  2250   58 51   CALM  /  2 1008.8S   0
PORT WING        2340   71     170/  6/  9 1008.8F
SAXON HARBOR     2300          210/  4/  8 1009.5
$$

LMZ867-665-643>646-260100-
LAKE MICHIGAN

STATION/POSITION TIME  TEMP    WIND        PRES    WAVE
                       AIR SEA DIR/SP/G            HT/PER
                 (UTC) (F)     (DEG/KT/KT) (MB)    (FT/S)
N MID LAKE BUOY  2250   59 55  200/ 16/ 17 1011.2F   3/ 4
NORTHPORT PIER   2300   64     150/  7/  9 1011.5F
KEWAUNEE LAKESHO 2300   57     180/ 16/ 18 1012.8F
SHEBOYGAN LAKESH 2300   62     170/ 13/ 14 1012.5F
PORT WASHINGTON  2340   65     190/  6/ 10 1012.9F
ATWATER BUOY     2300   63     130/  8     1013.6F
MILWAUKEE LAKESH 2300   66     140/  4/  6   N/A
S MID LAKE BUOY  2250   65 62  170/  8/ 10 1013.6F   1/ 4
KENOSHA   LAKESH 2300   74     240/  9/ 12 1012.9F
$$

TC  - TEMPERATURE IN CELSIUS
VSB - VISIBILITY IN STATUTE MILES
WCI - WIND CHILL INDEX
HX  - HEAT INDEX




USA.gov is the U.S. government's official web portal to all federal, state and local government web resources and services.